Regional Weather Roundup
Issued by NWS State College, PA

Home | Current Version | Previous Version | Text Only | Print | Product List | Glossary On
Versions: 1 2 3 4 5 6 7 8 9 10 11 12 13 14 15 16 17 18 19 20 21 22 23 24 25 26 27 28 29 30 31 32 33 34 35 36 37 38 39 40 41 42 43 44 45 46 47 48 49 50
000
ASUS41 KCTP 221610
RWRCTP

REGIONAL WEATHER ROUNDUP
NATIONAL WEATHER SERVICE STATE COLLEGE PA
1200 PM EDT TUE APR 22 2014

Note: "fair" indicates few or no clouds below 12,000 feet with no
significant weather and/or obstructions to visibility.

* = STATION THAT DOES NOT REPORT PRECIPITATION /E.G. RAIN...SNOW...ETC/
    THUNDER OR FOG.

PAZ002>004-007>009-013>016-020>023-029>032-221700-
WESTERN PENNSYLVANIA

CITY           SKY/WX    TMP DP  RH WIND       PRES   REMARKS
ERIE           CLOUDY    45  43  93 W6        29.68S FOG
MEADVILLE      FOG       50  49  96 NW8G21    29.67R VSB 1/4
FRANKLIN*      CLOUDY    55  52  88 W10       29.68F
NEW CASTLE     CLOUDY    61  56  83 W7        29.68F
BEAVER COUNTY  CLOUDY    57  55  94 W7        29.69F FOG
BUTLER*        CLOUDY    57  54  88 W9G17     29.70F
PITTSBURGH INT LGT RAIN  59  56  89 W10G17    29.69S FOG
PITTSBURGH     CLOUDY    60  55  83 W8        29.69F HAZE
INDIANA*       CLOUDY    54  54 100 SW8       29.70F
LATROBE        CLOUDY    55  55 100 SW9       29.71S FOG
WASHINGTON CO* CLOUDY    57  54  88 SW9       29.73S
$$

PAZ004>006-010>012-017>019-024>028-033>037-041-042-045-046-049>053-221700-
CENTRAL PENNSYLVANIA

CITY           SKY/WX    TMP DP  RH WIND       PRES   REMARKS
BRADFORD       LGT RAIN  54  51  90 W10       29.63R
DUBOIS         CLOUDY    56  53  90 SW10      29.65F FOG
CLEARFIELD     RAIN      54  52  93 SW8       29.66F FOG
JOHNSTOWN      LGT RAIN  51  50  96 W9        29.69S VSB 3/4
ALTOONA        LGT RAIN  60  51  72 W14       29.68R
STATE COLLEGE  LGT RAIN  61  48  63 W10       29.65F
WILLIAMSPORT   LGT RAIN  59  38  45 CALM      29.63F
SELINSGROVE    LGT RAIN  61  41  47 S8        29.65R
FT INDIANTOWN  PTSUNNY   61  43  51 SW7       29.66F
CAPITAL CITY   LGT RAIN  62  42  47 W6        29.67S
HARRISBURG     CLOUDY    62  44  51 SW3       29.66S
YORK           CLOUDY    66  47  50 NW7       29.66F
$$

PAZ038>040-043-044-047-048-054-055-060>062-067>071-221700-
EASTERN PENNSYLVANIA

CITY           SKY/WX    TMP DP  RH WIND       PRES   REMARKS
SCRANTON       CLOUDY    64  35  34 SW6       29.61F
MOUNT POCONO   CLOUDY    66  37  34 W7        29.63F
ALLENTOWN      CLOUDY    65  45  48 VRB5      29.64F
QUAKERTOWN*    PTSUNNY   64  48  55 SW6       29.65F
READING        PTSUNNY   67  47  48 S5        29.64F
LANCASTER      PTSUNNY   64  45  49 CALM      29.65F
COATESVILLE    PTSUNNY   66  48  52 S5        29.66F
POTTSTOWN      PTSUNNY   64  48  56 CALM      29.66F
BLUE BELL      MOSUNNY   70  46  43 S6        29.65F
DOYLESTOWN     MOSUNNY   65  45  48 SW7       29.65F
WILLOW GROVE   NOT AVBL
NORTH PHILA    MOSUNNY   69  43  38 SW10      29.67F
PHILADELPHIA   PTSUNNY   66  44  45 SW10      29.67F
$$



USA.gov is the U.S. government's official web portal to all federal, state and local government web resources and services.